Regional Weather Roundup
Issued by NWS

Home | Current Version | Previous Version | Graphics & Text | Print | Product List | Glossary On
Versions: 1 2 3 4 5 6 7 8 9 10 11 12 13 14 15 16 17 18 19 20 21 22 23 24 25 26 27 28 29 30 31 32 33 34 35 36 37 38 39 40 41 42 43 44 45 46 47 48 49 50
000
ASUS43 KDTX 191101
RWRMI
MICHIGAN HOURLY REGIONAL WEATHER ROUNDUP
NATIONAL WEATHER SERVICE DETROIT/PONTIAC MI
700 AM EDT WED SEP 19 2018

NOTE: "FAIR" INDICATES FEW OR NO CLOUDS BELOW 12,000 FEET WITH NO
SIGNIFICANT WEATHER AND/OR OBSTRUCTION TO VISIBILITY.

MIZ047>049-052>055-059>063-066>070-074>076-081>083-191200-
SOUTHEAST LOWER MICHIGAN

CITY           SKY/WX    TMP DP  RH WIND       PRES   REMARKS
ADRIAN         CLOUDY    65  64  97 E6        30.04R
ANN ARBOR      MOCLDY    65  62  90 NE5       30.03R
BAD AXE        CLOUDY    62  57  85 CALM      30.05R
CARO           CLOUDY    61  58  90 CALM      30.05R
DETROIT CITY   CLOUDY    64  59  83 NE5       30.05R
DETROIT        CLOUDY    66  60  81 E8        30.04R HAZE
FLINT          CLOUDY    62  57  83 E9        30.05R
GROSSE ILE     CLOUDY    65  63  92 NE6       30.03R FOG
HILLSDALE      CLOUDY    64  63  94 NE3       30.04R FOG
HOWELL         CLOUDY    64  62  96 NE6       30.04R

CITY           SKY/WX    TMP DP  RH WIND       PRES   REMARKS
JACKSON        CLOUDY    66  66 100 NE3       30.04R FOG
LAMBERTVILLE   CLOUDY    66  63  90 CALM      30.03R FOG
LANSING        CLOUDY    63  62  97 NE7       30.05R FOG
LAPEER         CLOUDY    62  59  91 CALM      30.06R
MASON          CLOUDY    66  64  91 N5        30.05R FOG
PONTIAC        MOCLDY    63  60  90 NE3       30.04R
PORT HOPE        N/A     64  58  80 CALM      30.03R
PORT HURON     CLOUDY    61  59  94 NW3       30.04R
TRI CITIES     CLOUDY    62  60  93 NE5       30.05F FOG
MIDLAND        CLOUDY    60  59  95 CALM      30.05R
TROY           CLOUDY    66  59  79 N6        30.07R
SAGINAW HB     CLOUDY    61  57  88 N5        30.05R
$$
MIZ043>046-050>051-056>058-064>065-071>073-077>080-191200-
SOUTHWEST LOWER MICHIGAN

CITY           SKY/WX    TMP DP  RH WIND       PRES   REMARKS
BATTLE CREEK   CLOUDY    63  62  97 NE8       30.04R
BENTON HARBOR  FAIR      60  58  92 NE5       30.02S
BIG RAPIDS     FAIR      53  52  96 CALM      30.07R
COLDWATER      CLOUDY    66  66 100 NE6       30.04R
FREMONT        FAIR      54  52  91 N5        30.05S
HOLLAND        FAIR      57  55  93 E5        30.03S
GRAND RAPIDS   FOG       60  59  96 E5        30.04S VSB 1
IONIA          CLOUDY    60  58  91 CALM      30.04R
KALAMAZOO      CLOUDY    64  61  90 NE3       30.05R
LUDINGTON      CLOUDY    57  54  89 CALM      30.07S
MARSHALL       CLOUDY    66  64  91 CALM      30.04R FOG
MOUNT PLEASANT CLOUDY    60  57  90 NE3       30.05R
MUSKEGON       FAIR      56  52  86 NE7       30.05R
SOUTH HAVEN    CLOUDY    59  58  96 E6        30.03S FOG
$$
MIZ016>042-191200-
NORTHERN LOWER MICHIGAN

CITY           SKY/WX    TMP DP  RH WIND       PRES   REMARKS
ALPENA         CLOUDY    54  50  86 W3        30.08R
BEAVER ISLAND  CLOUDY    55  50  83 CALM      30.10R
BELLAIRE       CLOUDY    54  49  85 N3        30.11R
CADILLAC       CLOUDY    54  52  95 N3        30.08R
CHARLEVOIX     CLOUDY    55  49  83 SE3       30.13R
FRANKFORT      CLOUDY    57  51  79 N5        30.08F
GAYLORD        CLOUDY    50  50 100 CALM      30.09R FOG
HARBOR SPRINGS CLOUDY    54  51  92 N3        30.11R
HOUGHTON LAKE  CLOUDY    56  54  93 N3        30.08R
MANISTEE       CLOUDY    56  51  84 NE6       30.08R
OSCODA         MOCLDY    53  53 100 CALM      30.06R
PELLSTON       CLOUDY    54  50  86 W5        30.10R
ROGERS CITY    CLOUDY    53  50  91 W3        30.08R
TRAVERSE CITY  CLOUDY    59  52  77 N5        30.08R
$$
MIZ007>008-015-191200-
EASTERN UPPER MICHIGAN

CITY           SKY/WX    TMP DP  RH WIND       PRES   REMARKS
KINROSS        CLOUDY    51  46  83 NE3       30.10R
MACKINAC ISLAN CLOUDY    55  49  83 NE5       30.09R
NEWBERRY       FAIR      46  45  97 CALM      30.11R
S. S. MARIE    FAIR      50  45  83 NE3       30.09R
MUNISING         N/A     52  48  86 S3        30.11S
$$
MIZ004>006-011>014-085-191200-
CENTRAL UPPER MICHIGAN

CITY           SKY/WX    TMP DP  RH WIND       PRES   REMARKS
MANISTIQUE     CLOUDY    50  45  81 NW6       30.10S
ESCANABA       FAIR      49  47  93 N3        30.10F
MENOMINEE      CLOUDY    50  47  89 NE7       30.08F
SAWYER-GWINN   CLOUDY    46  45  93 CALM      30.09F
$$
MIZ001>003-009>011-084-191200-
WESTERN UPPER MICHIGAN

CITY           SKY/WX    TMP DP  RH WIND       PRES   REMARKS
IRON MOUNTAIN  CLOUDY    48  46  93 CALM      30.08F
HOUGHTON       CLOUDY    50  45  83 E6        30.08F
COPPER HARBOR    N/A     52  49  89 CALM      30.10S
IRONWOOD       CLOUDY    49  48  97 E5        30.06S
$$

ABBREVIATIONS USED IN REMARKS
   TC - TEMPERATURE IN CELSIUS
  WCI - WIND CHILL INDEX
   HX - HEAT INDEX
  VSB - VISIBILITY





USA.gov is the U.S. government's official web portal to all federal, state and local government web resources and services.